GTRVO EDXH-EDWG

Flight info

Callsign GTRVO
Flight time 0h 11m
Altitude 1000
Route DCT
Aircraft C208/L-SY/S

Departure

Time 2026-05-07 13:50
Airport Helgoland-Düne Airport (EDXH)

Arrival

Time 2026-05-07 14:02
Airport Wangerooge Airport (EDWG)
Time Latitude Longitude Altitude Speed Heading
2026-05-07 13:39 54.18757 7.91593 8 ft 0 kts 144°
2026-05-07 13:44 54.18724 7.91588 9 ft 10 kts 208°
2026-05-07 13:44 54.18702 7.91580 9 ft 0 kts 162°
2026-05-07 13:46 54.18700 7.91581 9 ft 3 kts 162°
2026-05-07 13:46 54.18620 7.91562 8 ft 19 kts 205°
2026-05-07 13:46 54.18550 7.91502 9 ft 0 kts 206°
2026-05-07 13:48 54.18521 7.91479 10 ft 9 kts 204°
2026-05-07 13:48 54.18440 7.91539 10 ft 16 kts 146°
2026-05-07 13:48 54.18352 7.91641 12 ft 12 kts 155°
2026-05-07 13:48 54.18308 7.91681 13 ft 4 kts 92°
2026-05-07 13:49 54.18316 7.91690 13 ft 0 kts 331°
2026-05-07 13:49 54.18317 7.91689 13 ft 0 kts 327°
2026-05-07 13:49 54.18415 7.91569 10 ft 48 kts 324°
2026-05-07 13:50 54.18789 7.91144 162 ft 68 kts 328°
2026-05-07 13:50 54.19207 7.90625 423 ft 81 kts 337°
2026-05-07 13:50 54.19763 7.90722 718 ft 91 kts 47°
2026-05-07 13:50 54.19681 7.91813 874 ft 117 kts 133°
2026-05-07 13:51 54.18879 7.92275 1032 ft 129 kts 172°
2026-05-07 13:51 54.17934 7.92342 1077 ft 141 kts 173°
2026-05-07 13:51 54.16940 7.92441 1119 ft 146 kts 175°
2026-05-07 13:51 54.15886 7.92226 941 ft 156 kts 191°
2026-05-07 13:52 54.14853 7.91807 1071 ft 150 kts 189°
2026-05-07 13:52 54.13837 7.91627 1174 ft 147 kts 179°
2026-05-07 13:52 54.12790 7.91558 1130 ft 154 kts 180°
2026-05-07 13:52 54.11718 7.91408 1136 ft 153 kts 183°
2026-05-07 13:53 54.10672 7.91223 1143 ft 153 kts 183°
2026-05-07 13:53 54.09605 7.91078 1139 ft 154 kts 182°
2026-05-07 13:53 54.08542 7.90960 1157 ft 153 kts 179°
2026-05-07 13:53 54.07470 7.90970 1120 ft 156 kts 179°
2026-05-07 13:54 54.06377 7.90949 1098 ft 156 kts 179°
2026-05-07 13:54 54.05312 7.90840 1117 ft 152 kts 182°
2026-05-07 13:54 54.04596 7.90758 1117 ft 151 kts 180°
2026-05-07 13:54 54.03539 7.90764 1083 ft 153 kts 176°
2026-05-07 13:55 54.02484 7.90787 1053 ft 154 kts 179°
2026-05-07 13:55 54.01410 7.90713 1010 ft 154 kts 180°
2026-05-07 13:55 54.00345 7.90649 1000 ft 153 kts 177°
2026-05-07 13:55 53.99266 7.90703 978 ft 154 kts 176°
2026-05-07 13:56 53.98201 7.90719 953 ft 156 kts 176°
2026-05-07 13:56 53.97081 7.90808 897 ft 163 kts 175°
2026-05-07 13:56 53.95953 7.90912 930 ft 161 kts 174°
2026-05-07 13:56 53.94843 7.91080 927 ft 161 kts 173°
2026-05-07 13:57 53.93743 7.91232 956 ft 157 kts 174°
2026-05-07 13:57 53.92649 7.91356 932 ft 157 kts 175°
2026-05-07 13:57 53.91546 7.91440 925 ft 159 kts 175°
2026-05-07 13:57 53.90442 7.91592 923 ft 158 kts 172°
2026-05-07 13:58 53.89381 7.91807 1097 ft 149 kts 171°
2026-05-07 13:58 53.88339 7.91858 1073 ft 155 kts 183°
2026-05-07 13:58 53.87253 7.91636 1057 ft 159 kts 184°
2026-05-07 13:58 53.86152 7.91525 1113 ft 157 kts 181°
2026-05-07 13:59 53.85075 7.91490 1079 ft 160 kts 179°
2026-05-07 13:59 53.83942 7.91497 978 ft 165 kts 176°
2026-05-07 13:59 53.82779 7.91473 910 ft 165 kts 185°
2026-05-07 13:59 53.81782 7.90964 820 ft 142 kts 212°
2026-05-07 14:00 53.81154 7.89810 759 ft 124 kts 238°
2026-05-07 14:00 53.80551 7.88935 835 ft 108 kts 207°
2026-05-07 14:00 53.79858 7.88590 791 ft 98 kts 186°
2026-05-07 14:00 53.79184 7.88506 653 ft 98 kts 181°
2026-05-07 14:01 53.78564 7.88759 495 ft 86 kts 127°
2026-05-07 14:01 53.78334 7.89601 341 ft 76 kts 88°
2026-05-07 14:01 53.78314 7.90487 199 ft 75 kts 89°
2026-05-07 14:01 53.78279 7.91356 28 ft 73 kts 86°
2026-05-07 14:02 53.78246 7.92127 9 ft 57 kts 93°
2026-05-07 14:02 53.78231 7.92474 17 ft 9 kts 94°
2026-05-07 14:02 53.78235 7.92582 16 ft 9 kts 48°
2026-05-07 14:02 53.78284 7.92595 16 ft 7 kts 319°
2026-05-07 14:03 53.78293 7.92493 15 ft 11 kts 273°
2026-05-07 14:03 53.78300 7.92349 13 ft 14 kts 275°
2026-05-07 14:03 53.78306 7.92183 12 ft 15 kts 275°
2026-05-07 14:03 53.78313 7.91998 9 ft 17 kts 273°
2026-05-07 14:04 53.78321 7.91808 10 ft 15 kts 273°
2026-05-07 14:04 53.78328 7.91643 12 ft 13 kts 275°
2026-05-07 14:04 53.78341 7.91491 12 ft 13 kts 294°
2026-05-07 14:04 53.78385 7.91375 14 ft 10 kts 306°
2026-05-07 14:05 53.78426 7.91279 13 ft 10 kts 306°
2026-05-07 14:05 53.78469 7.91184 13 ft 10 kts 308°
2026-05-07 14:05 53.78508 7.91096 10 ft 9 kts 306°
2026-05-07 14:05 53.78553 7.91048 10 ft 7 kts 339°
2026-05-07 14:06 53.78599 7.91018 11 ft 7 kts 338°
2026-05-07 14:06 53.78662 7.90976 11 ft 11 kts 339°
2026-05-07 14:06 53.78724 7.90936 11 ft 8 kts 338°
2026-05-07 14:06 53.78766 7.90904 11 ft 5 kts 317°
2026-05-07 14:07 53.78781 7.90867 12 ft 3 kts 323°
2026-05-07 14:07 53.78787 7.90876 12 ft 0 kts 60°